Location: Newark
(43.9494°N, 6.8108°E)
Time: 05:40:35
(UTC+00:00)

Transit 2A Rocket - Pass Details

Date: 28 October 2019
Orbit: 594 x 909 km, 66.7° (Epoch: 13 November)

Event Time Altitude Azimuth Distance (km) Brightness Sun altitude
Exits shadow 03:04:09 18° 22° (NNE) 1,610 7.0 -32.6°
Drops below altitude 10° 03:05:18 10° 26° (NNE) 2,044 7.6 -32.4°
Sets 03:07:32 0° 29° (NNE) 2,922 8.6 -32.0°
